Location: London
(51.5074°N, 0.1278°W)
Time: 13:34:24
(UTC+01:00)

Tiangong - Pass Details

Date: 05 October 2021
Orbit: 382 x 384 km, 41.5° (Epoch: 20 October)

Event Time Altitude Azimuth Distance (km) Brightness Sun altitude
Exits shadow 05:38:43 10° 194° (SSW) 1,377 3.6 -14.6°
Drops below altitude 10° 05:39:12 10° 185° (S) 1,396 3.7 -14.6°
Sets 05:42:50 0° 141° (SE) 2,245 5.4 -14.0°
